NIMBUS 2 DEB, 59973

Orbit data source: Space-Track

NIMBUS 2 DEB, 59973 is space debris in SSO originally from a launch on Sun, 15 May 1966 UTC launched from the Air Force Western Test Range (AFWTR). Debris objects in space refer to the collection of defunct objects orbiting the Earth. Examples of debris include non-operational satellites, rocket bodies, and fragments generated from explosions, collisions, or faulty payload assembly.

Loading next visibility...
Identifier
59973, 1966-040CC
Orbit
SSO
Country
Flag of USUS
Related business
Manufacturer
Unknown
Mission
Spacecraft
Bus & Motor
Unknown
Mass
Unknown
Launch date (UTC)
1966-05-15 (60 years ago)
Launch vehicle
Unknown
Launch site
Air Force Western Test Range (AFWTR)
Object type
Payload
Rocket body
Debris
Shape & HBR
Unknown shape, 0.1 m
Radar Cross Section
Small (<0.1 m²)

Expand to show TLE details & history
Last TLE update: 4 days ago

TLE from 4 days ago
0 NIMBUS 2 DEB
1 59973U 66040CC  26169.93177009  .00001354  00000-0  24481-2 0  9993
2 59973 100.2485 341.0766 0048358 188.1910 171.8434 13.42778243416288
Epoch: 2026-06-18T22:21Z
TLE epoch observation values (Epoch: 2026-06-18T22:21:44.935Z)
Latitude
0.00001°
Longitude
98.47136°
Altitude
1,137.506 km
Speed
7.267 km/s
True Right ascension
22h 44m 18s
True Declination
0° 00' 00"
Sunlit
Object was in daylight at epoch
Visualization orbit readout
Latitude
Unknown
Longitude
Unknown
Altitude
Unknown
Speed
Unknown
Apparent Right ascension
Unknown
Apparent Declination
Unknown
Sunlit
N/A
Visualization observer readout
Local Sidereal Time
21:39:38
Azimuth
Unknown
Elevation
Unknown
Doppler factor
Unknown
Orbital elements
Apogee altitude
1,132.432 km
Perigee altitude
1,060.143 km
Semi-major axis
7,474.425 km
Eccentricity
0.00484
Inclination
100.2485°
RAAN
341.0766°
Arg. of periapsis
188.191°
True anomaly
171.92155°
Mean anomaly
171.8434°
Eccentric anomaly
171.88252°
Mean motion
3.35874 °/min
Orbital period
107.18 mins
BSTAR
0.0024481
Loading maneuver chart data...
Computing Atmospheric mass density...
Loading historical data...
Loading historical data...
Loading historical data...
Loading historical data...
Loading historical data...
Loading historical data...
Loading historical data...

Documentation

Showing up to 5 results
|